Погода в Белорецке

Россия / Республика Башкортостан     53°58′03″N   58°24′36″E
В апреле 2022 года жителям России запретили посещать сайт meteo.paraplan.net по решению Генеральной прокуратуры. Аудитория сайта уменьшилась в 10 раз. Владельцы сайта не видят смысла в поддержке погодного сервера в таких условиях. Сайт будет закрыт в октябре.
темп.,
°C
ветер,
м/с
пор.,
м/с
влажн.,
%
обл.,
%
осадки,
мм/ч
давл.,
гПа
погр.,
м
3 октября, пн
пн323:00−1ююв119774 0.0 103015
02:00−2ю119674 0.0 102918
05:00−2ююз129357 0.0 103025
08:00+1юз1288100 0.0 102945
11:00+7ююз24756 0.0 1028221
14:00+9ю3472100 0.0 1027479
17:00+8ю248885 0.0 1028142
20:00+2ю11945 0.0 103111
4 октября, вт
вт423:00+1ююз11925 0.0 103211
02:000ююз11914 0.0 103211
05:00−1зюз11924 0.0 103410
08:00−1зюз00905 0.0 103411
11:00+8ю12630 0.0 1033244
14:00+10ююв23552 0.0 1032608
17:00+9ююв12670 0.0 103361
20:00+3юв1178100 0.0 103510
5 октября, ср
ср523:00+1ююз117694 0.0 103510
02:000юз1176100 0.0 103613
05:000ююз117397 0.0 103614
08:00+1юз1167100 0.0 103614
11:00+7ююз2449100 0.0 1033227
14:00+10ю3541100 0.0 1031573
17:00+7ю2255100 0.0 103153
20:00+5ю1157100 0.0 103110
6 октября, чт
чт623:00+5юв1157100 0.0 103010
02:00+5вюв115695 0.0 102812
05:00+3вюв1157100 0.0 102611
08:00+4вюв1160100 0.1 102528
11:00+5зюз1481100 1.5 1024242
14:00+6ююз51280100 0.9 1022931
17:00+7ю31083100 0.9 1020627
20:00+5ююв227977 0.0 101927
7 октября, пт
пт723:00+5ю237250 0.0 101745
02:00+4юз237937 0.0 101650
05:00+5ююз41083100 0.1 1015740
08:00+3з5119477 0.6 1015783
11:00+4з61083100 0.6 1015939
14:00+4з61083100 0.1 10161133
17:00+4з51183100 0.1 10161271
20:00+4зюз4117963 0.0 1016854